COSMOS 1275 DEB, 42129

Orbit data source: Space-Track

COSMOS 1275 DEB, 42129 is space debris in LEO originally from a launch on Thu, 04 Jun 1981 UTC launched from the Plesetsk Missile And Space Complex (PKMTR). Debris objects in space refer to the collection of defunct objects orbiting the Earth. Examples of debris include non-operational satellites, rocket bodies, and fragments generated from explosions, collisions, or faulty payload assembly.

Loading next visibility...
Identifier
42129, 1981-053QR
Orbit
LEO
Country
Flag of CISCIS
Related business
Manufacturer
Unknown
Mission
Spacecraft
Bus & Motor
Unknown
Mass
Unknown
Launch date (UTC)
1981-06-04 (45 years ago)
Launch vehicle
Unknown
Launch site
Plesetsk Missile And Space Complex (PKMTR)
Object type
Payload
Rocket body
Debris
Shape & HBR
Unknown shape, 0.1 m
Radar Cross Section
Small (<0.1 m²)

Expand to show TLE details & history
Last TLE update: 3 days ago

TLE from 3 days ago
0 COSMOS 1275 DEB
1 42129U 81053QR  26252.34963925  .00000953  00000-0  72731-3 0  9993
2 42129  82.8390 280.0310 0061761  46.8239 313.8063 13.91693646609420
Epoch: 2026-09-09T08:23Z
TLE epoch observation values (Epoch: 2026-09-09T08:23:28.831Z)
Latitude
-0.00004°
Longitude
165.7579°
Altitude
894.549 km
Speed
7.421 km/s
True Right ascension
18h 40m 07s
True Declination
0° 00' 00"
Sunlit
Object was in daylight at epoch
Visualization orbit readout
Latitude
Unknown
Longitude
Unknown
Altitude
Unknown
Speed
Unknown
Apparent Right ascension
Unknown
Apparent Declination
Unknown
Sunlit
N/A
Visualization observer readout
Local Sidereal Time
04:44:06
Azimuth
Unknown
Elevation
Unknown
Doppler factor
Unknown
Orbital elements
Apogee altitude
964.904 km
Perigee altitude
874.758 km
Semi-major axis
7,297.968 km
Eccentricity
0.00618
Inclination
82.839°
RAAN
280.031°
Arg. of periapsis
46.8239°
True anomaly
313.29281°
Mean anomaly
313.8063°
Eccentric anomaly
313.54983°
Mean motion
3.48129 °/min
Orbital period
103.41 mins
BSTAR
0.00072731
Loading maneuver chart data...
Computing Atmospheric mass density...
Loading historical data...
Loading historical data...
Loading historical data...
Loading historical data...
Loading historical data...
Loading historical data...
Loading historical data...

Documentation

Showing up to 5 results
|